Location: Corcelles
(46.1547°N, 4.7234°E)
Time: 08:51:13
(UTC+00:00)

Cosmos 841 Rocket - Pass Details

Date: 14 July 2020
Orbit: 747 x 772 km, 74.0° (Epoch: 14 August)

Event Time Altitude Azimuth Distance (km) Brightness Sun altitude
Rises 02:50:01 0° 340° (NNW) 3,208 7.1 -10.6°
Reaches altitude 10° 02:52:25 10° 344° (NNW) 2,282 6.4 -10.3°
Maximum altitude 02:57:32 61° 65° (ENE) 856 4.1 -9.7°
Drops below altitude 10° 03:02:39 10° 146° (SE) 2,281 5.9 -9.1°
Sets 03:05:03 0° 150° (SSE) 3,206 6.6 -8.8°
